Overview Statistics Trail Chart Weather Telemetry Raw packets
 

This is the latest recevied weather packets stored in our database for station/object KW6V-15. If no packets are shown the sender has not sent any weather packets the latest 10 day(s).

<< 3 4 5 6 7 8 9 >>
Time Temp. Humidity Pressure Rain* Wind** Luminosity Snow
1788418819 15° C 91% 1015.3 hPa 0 mm - - -
1788417019 15° C 91% 1015.4 hPa 0 mm - - -
1788415231 15.56° C 91% 1015.7 hPa 0 mm - - -
1788413422 15.56° C 90% 1016 hPa 0 mm - - -
1788411619 15.56° C 89% 1016.1 hPa 0 mm - - -
1788409825 16.11° C 87% 1015.9 hPa 0 mm - - -
1788408021 16.11° C 86% 1015.7 hPa 0 mm - - -
1788406230 16.11° C 86% 1015.4 hPa 0 mm - - -
1788404416 16.11° C 86% 1015.7 hPa 0 mm - - -
1788402630 16.67° C 85% 1016 hPa 0 mm - - -
1788400820 16.67° C 85% 1016.1 hPa 0 mm - - -
1788399040 17.22° C 83% 1016.1 hPa 0 mm - - -
1788397225 17.22° C 83% 1016.4 hPa 0 mm - - -
1788395422 17.22° C 83% 1016.3 hPa 0 mm - - -
1788393638 17.78° C 83% 1016.6 hPa 0 mm - - -
1788391829 18.33° C 81% 1016.6 hPa 0 mm - - -
1788390031 18.89° C 80% 1016.7 hPa 0 mm - - -
1788388233 19.44° C 78% 1017 hPa 0 mm - - -
1788386467 20.56° C 75% 1017 hPa 0 mm - - -
1788384633 19.44° C 78% 1017.1 hPa 0 mm - - -
1788382826 18.33° C 80% 1017.2 hPa 0 mm - - -
1788381122 17.78° C 81% 1017.4 hPa 0 mm - - -
1788379238 18.89° C 78% 1017.5 hPa 0 mm - - -
1788377435 18.89° C 79% 1017.4 hPa 0 mm - - -
1788373847 17.78° C 83% 1017.3 hPa 0 mm - - -

* Rain latest hour (hover to see other rain measurements)
** Current wind speed in m/s (hover to see current wind gust speed)